Location: Unspecified
(0.0000°N, 0.0000°E)
Time: 11:07:03
(UTC+00:00)

Courier 1B - Pass Details

Date: 23 November 2019
Orbit: 963 x 1209 km, 28.3° (Epoch: 14 December)

Event Time Altitude Azimuth Distance (km) Brightness Sun altitude
Rises 02:27:40 0° 270° (W) 4,081 - -45.6°
Reaches altitude 10° 02:31:14 10° 283° (WNW) 3,090 - -44.9°
Maximum altitude 02:37:03 23° 333° (NNW) 2,205 - -43.6°
Drops below altitude 10° 02:42:39 10° 23° (NNE) 2,962 - -42.3°
Exits shadow 02:45:36 - 36° (NE) 3,755 10.6 -41.7°
Sets 02:46:00 0° 37° (NE) 3,873 10.7 -41.6°
